Hourly Data Report for October 21, 2020

SAINT JOHN A
NEW BRUNSWICK
Current Station Operator: NAVCAN

45°18'58.000" N
65°53'24.000" W
108.80 m
8104901
71609
YSJ

Download Data

Hourly Data (October 2020)
Hourly Data Report for October 21, 2020
TIME
LST
Temp Definition
°C
Dew Point Definition
°C
Rel Hum Definition
%
Precip. Amount Definition
mm

Wind Dir Definition
10's deg

Wind Spd Definition
km/h
Visibility Definition
km
Stn Press Definition
kPa
Hmdx Definition


Wind Chill Definition


Weather Definition


00:00 12.1 12.1 100 LegendMM 35 4 8.1 101.38     Fog
01:00 11.9 11.9 100 LegendMM 34 4 12.9 101.43     Rain Showers
02:00 12.1 12.0 99 LegendMM 36 10 12.9 101.46     Rain Showers
03:00 11.7 11.2 97 LegendMM 1 13 12.9 101.52     Rain Showers
04:00 10.5 10.1 97 LegendMM 2 16 8.1 101.52     Rain Showers, Fog
05:00 9.8 9.5 98 LegendMM 2 15 8.1 101.60     Rain Showers, Fog
06:00 9.4 9.2 99 LegendMM 3 17 8.1 101.58     Rain Showers, Fog
07:00 7.9 7.5 98 LegendMM 2 17 16.1 101.61     Rain Showers
08:00 7.6 7.3 98 LegendMM 3 14 19.3 101.68     Rain
09:00 7.7 7.4 98 LegendMM 3 14 LegendMM 101.67     Rain
10:00 8.0 7.7 98 LegendMM 4 11 19.3 101.65     Drizzle
11:00 8.4 7.6 95 LegendMM 7 16 19.3 101.58     Drizzle
12:00 9.4 8.5 94 LegendMM 10 23 16.1 101.44     Drizzle
13:00 9.7 9.4 98 LegendMM 9 19 4.8 101.35     Drizzle, Fog
14:00 10.1 9.8 98 LegendMM 11 26 4.8 101.21     Drizzle, Fog
15:00 10.7 10.5 99 LegendMM 13 9 4.8 101.13     Drizzle, Fog
16:00 11.3 11.3 100 LegendMM 14 10 4.8 101.01     Drizzle, Fog
17:00 11.7 11.7 100 LegendMM 12 20 3.2 100.94     Drizzle, Fog
18:00 12.5 12.5 100 LegendMM 13 15 3.2 100.90     Drizzle, Fog
19:00 13.5 13.5 100 LegendMM 17 16 3.2 100.89     Rain, Fog
20:00 13.3 13.3 100 LegendMM 19 23 1.6 100.81     Rain, Fog
21:00 13.1 13.1 100 LegendMM 21 20 2.4 100.82     Rain, Fog
22:00 13.1 13.1 100 LegendMM 21 23 1.2 100.79     Drizzle, Fog
23:00 13.1 13.1 100 LegendMM 22 13 0.8 100.81     Drizzle, Fog

Notes on Data Quality.

Legend

  • E = Estimated
  • M = Missing
  • NA = Not Available*
  • [empty] = Indicates an unobserved value
Date modified: